#timestamp,LO_Frequency,Hit 
1502031615.1,286047021.0,N
1502031635.8,286047022.8,N
1502031655.7,286047022.4,N
1502031675.5,286047022.3,N
1502031695.3,286047024.4,N
1502031715.2,286047024.4,N
1502031735.9,286047026.3,N
1502031755.7,286047026.4,N
1502031775.6,286047023.2,N
1502031795.4,286047021.6,N
1502031815.2,286047022.8,N
1502031835.0,286047023.1,N
1502031836.0,286047023.1,N
1502031855.8,286047023.2,N
1502031875.6,286047022.0,N
1502031895.4,286047020.7,N
1502031915.3,286047017.8,N
1502031935.1,286047017.3,N
1502031955.8,286047019.5,N
1502031975.7,286047021.0,N
1502031995.5,286047022.9,N
1502032015.3,286047022.3,N
1502032035.2,286047022.2,N
1502032055.9,286047022.3,N
1502032075.7,286047026.3,N
1502032095.6,286047024.3,N
1502032115.4,286047026.2,N
1502032135.2,286047026.7,N
1502032155.1,286047025.7,N
1502032156.0,286047025.7,N
1502032175.8,286047024.4,N
1502032195.6,286047024.5,N
1502032215.4,286047025.1,N
1502032235.3,286047026.5,N
1502032255.1,286047025.2,N
1502032275.8,286047022.1,N
1502032295.7,286047024.0,N
1502032315.5,286047026.1,N
1502032335.3,286047026.4,N
1502032355.2,286047026.4,N
1502032375.9,286047024.6,N
1502032395.7,286047023.9,N
1502032415.6,286047022.1,N
1502032435.4,286047024.8,N
1502032455.2,286047026.0,N
1502032475.0,286047028.4,N
1502032475.9,286047028.4,N
1502032495.8,286047025.8,N
1502032515.6,286047026.6,N
1502032535.4,286047026.2,N
1502032555.3,286047024.9,N
1502032575.1,286047022.5,N
1502032595.8,286047024.4,N
1502032615.7,286047024.9,N
1502032635.5,286047022.2,N
1502032655.3,286047022.8,N
1502032675.2,286047022.0,N
1502032695.9,286047019.0,N
1502032715.7,286047019.5,N
1502032735.5,286047021.6,N
1502032755.4,286047021.2,N
1502032775.2,286047018.9,N
1502032795.0,286047021.0,N
1502032795.9,286047021.0,N
1502032815.8,286047020.7,N
1502032835.6,286047021.9,N
1502032855.4,286047020.8,N
1502032875.3,286047022.7,N
1502032895.1,286047021.2,N
1502032896.0,286047021.2,N
1502032915.8,286047021.4,N
1502032935.7,286047023.1,N
1502032955.5,286047023.4,N
1502032975.3,286047024.7,N
1502032995.2,286047025.2,N
1502033015.9,286047024.2,N
1502033035.7,286047026.7,N
1502033055.5,286047022.1,N
1502033075.4,286047022.3,N
1502033095.2,286047024.6,N
1502033115.0,286047025.2,N
1502033115.9,286047025.2,N
1502033135.8,286047024.1,N
1502033155.6,286047022.2,N
1502033175.4,286047022.3,N
1502033195.3,286047025.1,N
1502033215.1,286047024.8,N
1502033216.0,286047024.8,N
1502033235.8,286047028.1,N
1502033255.7,286047027.5,N
1502033275.5,286047029.1,N
1502033295.3,286047031.5,N
1502033315.1,286047028.7,N
1502033335.9,286047029.2,N
1502033355.7,286047031.3,N
1502033375.5,286047029.2,N
1502033395.4,286047028.8,N
1502033415.2,286047028.1,N
1502033435.0,286047028.1,N
1502033435.9,286047028.1,N
1502033455.8,286047027.7,N
1502033475.6,286047027.8,N
1502033495.4,286047027.5,N
1502033515.3,286047027.8,N
1502033535.1,286047027.7,N
1502033536.0,286047027.7,N
1502033555.8,286047027.0,N
1502033575.7,286047027.1,N
1502033595.5,286047027.3,N
1502033615.3,286047027.6,N
1502033635.1,286047026.2,N
1502033655.9,286047025.2,N
1502033675.7,286047023.9,N
1502033695.5,286047026.8,N
1502033715.4,286047026.1,N
1502033735.2,286047027.2,N
1502033755.0,286047027.2,N
1502033755.9,286047027.2,N
1502033775.8,286047027.0,N
1502033795.6,286047026.9,N
1502033815.4,286047029.9,N
1502033835.3,286047027.8,N
1502033855.1,286047026.0,N
1502033856.0,286047026.0,N
1502033875.8,286047027.5,N
1502033895.6,286047027.6,N
1502033915.5,286047027.4,N
1502033935.3,286047031.6,N
1502033955.1,286047028.9,N
1502033975.9,286047031.2,N
1502033995.7,286047031.1,N
1502034015.5,286047028.5,N
1502034035.4,286047033.2,N
1502034055.2,286047031.3,N
1502034075.0,286047031.2,N
1502034075.9,286047031.2,N
1502034095.8,286047028.9,N
1502034115.6,286047028.5,N
1502034135.4,286047031.5,N
1502034155.2,286047031.3,N
1502034175.1,286047028.9,N
1502034176.0,286047028.9,N
1502034195.8,286047027.0,N
1502034215.6,286047027.6,N
1502034235.5,286047027.7,N
1502034255.3,286047027.5,N
1502034275.1,286047029.7,N
1502034295.9,286047027.4,N
1502034315.7,286047031.5,N
1502034335.5,286047027.4,N
1502034355.4,286047028.1,N
1502034375.2,286047029.5,N
1502034395.0,286047029.3,N
1502034395.9,286047029.3,N
1502034415.8,286047027.0,N
1502034435.6,286047026.9,N
1502034455.4,286047029.4,N
1502034475.3,286047029.0,N
1502034495.1,286047027.0,N
1502034496.0,286047027.0,N
1502034515.8,286047029.8,N
1502034535.6,286047031.3,N
1502034555.5,286047032.0,N
1502034575.3,286047030.5,N
1502034595.1,286047032.4,N
1502034615.9,286047030.4,N
1502034635.7,286047030.4,N
1502034655.5,286047031.5,N
1502034675.4,286047031.3,N
1502034695.2,286047030.3,N
1502034715.0,286047032.8,N
1502034715.9,286047032.8,N
1502034735.8,286047032.9,N
1502034755.6,286047030.5,N
1502034775.4,286047031.2,N
1502034795.2,286047031.6,N
1502034815.1,286047030.7,N
1502034816.0,286047030.7,N
1502034835.8,286047030.1,N
1502034855.6,286047034.6,N
1502034875.5,286047033.2,N
1502034895.3,286047033.9,N
1502034915.1,286047034.3,N
1502034935.9,286047034.3,N
1502034955.7,286047036.2,N
1502034975.5,286047036.1,N
1502034995.4,286047034.1,N
1502035015.2,286047032.3,N
1502035035.0,286047032.9,N
1502035035.9,286047032.9,N
1502035055.8,286047030.6,N
1502035075.6,286047033.2,N
1502035095.4,286047031.8,N
1502035115.3,286047030.4,N
1502035135.1,286047030.1,N
1502035136.0,286047030.1,N
1502035155.8,286047033.0,N
1502035175.6,286047032.0,N
1502035195.5,286047031.8,N
